Date String (YYYY-MM-DD hh:mm:ss) UTC,Instrument flags,absolute air pressure of the measurement (hPa),sample flow rate (lpm),inlet stack bypass flow (lpm),air temperature of the measurement (°C),ambient temperature measured by the external sensor (°C),aerosol sample conditioner tube jacket temperature (°C),OPC LED temperature (°C),internal box temperature (°C),relative humidity of the measurement (%),span deviation,mass concentration of particles derived from Lorenz-Mie calculation of OPC scattering (μg/m³),mass concentration of particles derived from Lorenz-Mie calculation of OPC scattering (μg/m³),mass concentration of particles derived from Lorenz-Mie calculation of OPC scattering (μg/m³)
DateTimeUTC,F1_M11,P_M11,Q1_M11,Q2_M11,T1_M11,T2_M11,T3_M11,T4_M11,T5_M11,U1_M11,ZSPAN_M11,X2_M11,X0_M11,X1_M11
2024-02-13 06:00:00,SystemResetWarning,0825.2,5.00,000.00,019.0,018.4,000.0,027.3,020.6,11.7,0000.0,0001.09,0002.35,0000.65
2024-02-13 06:01:00,SystemResetWarning,0825.2,5.00,000.00,019.0,018.3,000.0,027.3,020.6,11.5,0000.0,0001.06,0002.29,0000.63
2024-02-13 06:02:00,SystemResetWarning,0825.2,5.00,000.00,019.0,018.3,000.0,027.3,020.6,11.4,0000.0,0001.06,0002.17,0000.63
2024-02-13 06:03:00,SystemResetWarning,0825.3,5.01,000.00,019.0,018.3,000.0,027.3,020.6,11.3,0000.0,0001.06,0002.10,0000.63
2024-02-13 06:04:00,SystemResetWarning,0825.3,5.01,000.00,019.0,018.3,000.0,027.3,020.6,11.3,0000.0,0001.02,0001.95,0000.63
2024-02-13 06:05:00,SystemResetWarning,0825.3,5.00,000.00,019.0,018.3,000.0,027.3,020.6,11.4,0000.0,0001.01,0001.90,0000.64
2024-02-13 06:06:00,SystemResetWarning,0825.3,4.99,000.00,019.0,018.3,000.0,027.3,020.6,11.6,0000.0,0001.00,0001.85,0000.64
2024-02-13 06:07:00,SystemResetWarning,0825.3,5.00,000.00,018.9,018.3,000.0,027.3,020.6,11.7,0000.0,0000.99,0001.81,0000.63
2024-02-13 06:08:00,SystemResetWarning,0825.3,5.01,000.00,018.9,018.3,000.0,027.3,020.6,11.6,0000.0,0000.96,0001.73,0000.63
2024-02-13 06:09:00,SystemResetWarning,0825.3,5.01,000.00,018.9,018.3,000.0,027.3,020.6,11.5,0000.0,0000.95,0001.96,0000.64
2024-02-13 06:10:00,SystemResetWarning,0825.3,5.00,000.00,018.9,018.3,000.0,027.2,020.6,11.6,0000.0,0000.90,0002.04,0000.63
2024-02-13 06:11:00,SystemResetWarning,0825.3,5.00,000.00,018.9,018.3,000.0,027.2,020.6,11.7,0000.0,0000.93,0002.53,0000.63
2024-02-13 06:12:00,SystemResetWarning,0825.3,5.00,000.00,018.9,018.3,000.0,027.2,020.6,11.7,0000.0,0000.99,0002.65,0000.64
2024-02-13 06:13:00,SystemResetWarning,0825.3,4.99,000.00,018.9,018.3,000.0,027.2,020.6,11.6,0000.0,0001.01,0002.61,0000.64
2024-02-13 06:14:00,SystemResetWarning,0825.3,5.00,000.00,018.9,018.3,000.0,027.2,020.6,11.6,0000.0,0001.01,0002.70,0000.64
2024-02-13 06:15:00,SystemResetWarning,0825.3,5.00,000.00,018.9,018.3,000.0,027.2,020.5,11.5,0000.0,0001.00,0002.76,0000.64
2024-02-13 06:16:00,SystemResetWarning,0825.3,5.00,000.00,018.9,018.3,000.0,027.2,020.5,11.6,0000.0,0001.01,0002.79,0000.63
2024-02-13 06:17:00,SystemResetWarning,0825.3,5.00,000.00,018.9,018.3,000.0,027.2,020.5,11.5,0000.0,0001.01,0002.79,0000.63
2024-02-13 06:18:00,SystemResetWarning,0825.3,5.01,000.00,018.9,018.3,000.0,027.2,020.5,11.5,0000.0,0000.99,0002.75,0000.63
2024-02-13 06:19:00,SystemResetWarning,0825.4,5.00,000.00,018.9,018.3,000.0,027.2,020.5,11.6,0000.0,0001.05,0002.89,0000.62
2024-02-13 06:20:00,SystemResetWarning,0825.4,5.00,000.00,018.9,018.3,000.0,027.2,020.5,11.7,0000.0,0001.05,0002.56,0000.61
2024-02-13 06:21:00,SystemResetWarning,0825.3,4.99,000.00,018.9,018.3,000.0,027.2,020.5,11.6,0000.0,0001.07,0002.45,0000.61
2024-02-13 06:22:00,SystemResetWarning,0825.4,5.00,000.00,018.9,018.3,000.0,027.2,020.5,11.6,0000.0,0001.04,0002.01,0000.60
2024-02-13 06:23:00,SystemResetWarning,0825.4,5.00,000.00,018.9,018.2,000.0,027.2,020.5,11.8,0000.0,0001.02,0001.94,0000.59
2024-02-13 06:24:00,SystemResetWarning,0825.4,5.00,000.00,018.8,018.2,000.0,027.2,020.5,11.8,0000.0,0000.99,0002.82,0000.58
2024-02-13 06:25:00,SystemResetWarning,0825.4,5.00,000.00,018.8,018.2,000.0,027.2,020.5,11.7,0000.0,0000.98,0002.93,0000.57
2024-02-13 06:26:00,SystemResetWarning,0825.4,5.00,000.00,018.8,018.2,000.0,027.2,020.5,11.8,0000.0,0000.96,0004.15,0000.58
2024-02-13 06:27:00,SystemResetWarning,0825.4,5.00,000.00,018.8,018.3,000.0,027.2,020.5,11.9,0000.0,0000.93,0004.53,0000.58
2024-02-13 06:28:00,SystemResetWarning,0825.3,5.00,000.00,018.8,018.3,000.0,027.2,020.5,11.7,0000.0,0000.92,0004.50,0000.58
2024-02-13 06:29:00,SystemResetWarning,0825.3,4.99,000.00,018.8,018.3,000.0,027.2,020.5,11.5,0000.0,0000.93,0004.52,0000.58
2024-02-13 06:30:00,SystemResetWarning,0825.3,4.99,000.00,018.8,018.3,000.0,027.2,020.5,11.1,0000.0,0000.91,0004.45,0000.58
2024-02-13 06:31:00,SystemResetWarning,0825.2,4.99,000.00,018.8,018.2,000.0,027.2,020.5,10.8,0000.0,0000.91,0004.54,0000.58
2024-02-13 06:32:00,SystemResetWarning,0825.2,5.00,000.00,018.8,018.2,000.0,027.1,020.4,11.0,0000.0,0000.90,0004.60,0000.58
2024-02-13 06:33:00,SystemResetWarning,0825.2,5.00,000.00,018.8,018.2,000.0,027.1,020.5,11.0,0000.0,0000.91,0004.63,0000.58
2024-02-13 06:34:00,SystemResetWarning,0825.2,5.01,000.00,018.8,018.2,000.0,027.1,020.4,11.3,0000.0,0000.88,0004.59,0000.58
2024-02-13 06:35:00,SystemResetWarning,0825.2,5.00,000.00,018.8,018.2,000.0,027.1,020.5,11.3,0000.0,0000.90,0004.09,0000.59
2024-02-13 06:36:00,SystemResetWarning,0825.2,5.01,000.00,018.8,018.2,000.0,027.1,020.4,11.5,0000.0,0000.90,0003.41,0000.59
2024-02-13 06:37:00,SystemResetWarning,0825.3,5.00,000.00,018.8,018.2,000.0,027.1,020.4,11.7,0000.0,0000.95,0002.96,0000.58
2024-02-13 06:38:00,SystemResetWarning,0825.2,5.00,000.00,018.8,018.2,000.0,027.1,020.4,11.9,0000.0,0000.98,0001.97,0000.57
2024-02-13 06:39:00,SystemResetWarning,0825.1,5.00,000.00,018.8,018.2,000.0,027.1,020.5,11.6,0000.0,0001.03,0002.10,0000.57
2024-02-13 06:40:00,SystemResetWarning,0825.2,5.00,000.00,018.8,018.2,000.0,027.1,020.4,11.8,0000.0,0001.03,0002.12,0000.57
2024-02-13 06:41:00,SystemResetWarning,0825.2,4.99,000.00,018.8,018.2,000.0,027.1,020.4,12.0,0000.0,0001.00,0002.31,0000.56
2024-02-13 06:42:00,SystemResetWarning,0825.1,4.99,000.00,018.8,018.2,000.0,027.1,020.4,12.1,0000.0,0001.00,0002.40,0000.56
2024-02-13 06:43:00,SystemResetWarning,0825.1,4.99,000.00,018.8,018.2,000.0,027.1,020.4,11.8,0000.0,0000.98,0002.29,0000.57
2024-02-13 06:44:00,SystemResetWarning,0825.1,5.01,000.00,018.8,018.2,000.0,027.1,020.4,11.7,0000.0,0000.97,0002.26,0000.56
2024-02-13 06:45:00,SystemResetWarning,0825.2,5.00,000.00,018.8,018.2,000.0,027.1,020.4,11.7,0000.0,0000.96,0002.27,0000.56
2024-02-13 06:46:00,SystemResetWarning,0825.2,5.01,000.00,018.8,018.1,000.0,027.1,020.4,11.8,0000.0,0000.95,0002.25,0000.56
2024-02-13 06:47:00,SystemResetWarning,0825.2,5.01,000.00,018.8,018.1,000.0,027.1,020.4,11.8,0000.0,0000.94,0002.21,0000.56
2024-02-13 06:48:00,SystemResetWarning,0825.2,5.00,000.00,018.7,018.1,000.0,027.1,020.4,11.8,0000.0,0000.88,0002.26,0000.56
2024-02-13 06:49:00,SystemResetWarning,0825.2,5.00,000.00,018.7,018.1,000.0,027.0,020.4,11.7,0000.0,0000.84,0002.13,0000.56
2024-02-13 06:50:00,SystemResetWarning,0825.2,5.00,000.00,018.7,018.1,000.0,027.0,020.4,11.8,0000.0,0000.79,0002.02,0000.55
2024-02-13 06:51:00,SystemResetWarning,0825.3,5.00,000.00,018.7,018.1,000.0,027.0,020.4,11.5,0000.0,0000.75,0001.93,0000.54
2024-02-13 06:52:00,SystemResetWarning,0825.2,5.00,000.00,018.7,018.1,000.0,027.0,020.3,11.5,0000.0,0000.77,0001.86,0000.55
2024-02-13 06:53:00,SystemResetWarning,0825.2,5.02,000.00,018.7,018.1,000.0,027.0,020.4,11.5,0000.0,0000.77,0001.73,0000.55
2024-02-13 06:54:00,SystemResetWarning,0825.1,5.00,000.00,018.7,018.1,000.0,027.0,020.3,11.6,0000.0,0000.76,0002.85,0000.54
2024-02-13 06:55:00,SystemResetWarning,0825.1,5.00,000.00,018.7,018.1,000.0,027.0,020.3,11.6,0000.0,0000.78,0002.88,0000.54
2024-02-13 06:56:00,SystemResetWarning,0825.1,5.00,000.00,018.7,018.1,000.0,027.0,020.3,11.2,0000.0,0000.77,0002.83,0000.55
2024-02-13 06:57:00,SystemResetWarning,0825.2,5.00,000.00,018.7,018.1,000.0,027.0,020.3,11.5,0000.0,0000.78,0002.85,0000.54
2024-02-13 06:58:00,SystemResetWarning,0825.3,5.00,000.00,018.7,018.1,000.0,027.0,020.3,11.6,0000.0,0000.74,0002.78,0000.53
2024-02-13 06:59:00,SystemResetWarning,0825.5,4.99,000.00,018.7,018.1,000.0,027.0,020.3,11.5,0000.0,0000.72,0002.60,0000.53
